Probability
0 0 1 2 4 5 3 1 0 0 0 0 0 0 0 0 0 0 0 0 0 0 0 0 0 0 0 0 0 0 0 0 0 0 0 0 0 0 0 0 0 0 0
0 0 1 2 4 5 3 1 0 0 0 0 0 0 0 0 0 0 0 0 0 0 0 0 0 0 0 0 0 0 0 0 0 0 0 0 0 0 0 0 0 0 0
0 0 1 3 4 5 3 1 0 0 0 0 0 0 0 0 0 0 0 0 0 0 0 0 0 0 0 0 0 0 0 0 0 0 0 0 0 0 0 0 0 0 0
1 1 1 3 5 5 4 2 1 0 0 0 0 0 0 0 0 0 0 0 0 0 0 0 0 0 0 0 0 0 0 0 0 0 0 0 0 0 0 0 0 0 0
3 2 2 4 5 5 4 3 1 0 0 0 1 0 0 0 0 0 0 0 0 0 0 0 0 0 0 0 0 0 0 0 0 0 0 0 0 0 0 0 0 0 0
5 4 4 5 6 5 4 3 2 0 0 0 0 0 0 0 0 0 0 0 0 0 0 0 0 0 0 1 0 0 0 0 0 0 0 0 0 0 0 0 0 0 0
6 5 5 5 5 4 3 2 1 0 0 0 0 0 0 1 0 0 0 0 0 0 0 0 0 0 0 0 0 0 0 0 0 0 0 0 0 0 0 0 0 0 0
6 6 6 5 3 1 1 1 0 0 0 0 0 0 0 0 0 0 0 0 0 0 0 0 0 0 0 0 0 0 0 0 0 0 0 0 0 0 0 0 0 0 0
6 6 6 3 1 0 0 0 0 0 0 0 0 0 0 0 0 0 0 0 0 0 0 0 0 0 0 0 0 0 0 0 0 0 0 0 0 0 0 0 0 0 0
6 6 5 2 0 0 0 0 0 0 0 0 0 0 0 0 0 0 0 0 0 0 0 0 0 0 0 0 1 0 0 0 0 0 0 0 0 0 0 0 0 0 0
6 6 4 1 0 0 0 0 0 0 0 0 0 0 0 0 0 0 0 0 0 0 0 0 0 0 0 0 0 0 0 0 0 0 0 0 0 0 0 0 0 0 0
6 6 3 1 0 0 0 0 0 0 0 0 0 0 0 0 0 0 0 0 0 0 0 0 0 0 0 0 0 0 0 0 0 0 0 0 0 0 0 0 0 0 0
6 5 3 1 0 0 0 0 0 0 0 0 0 0 0 0 0 0 0 0 0 0 0 0 0 0 0 0 0 0 0 0 0 0 0 0 0 0 0 0 0 0 0
5 4 2 0 0 0 0 0 0 0 0 0 0 0 0 0 0 0 0 0 0 0 0 0 0 0 0 0 0 0 0 0 0 0 0 0 0 0 0 0 0 0 0
3 2 0 0 0 0 0 0 0 0 0 0 0 0 0 0 0 0 0 0 0 0 0 0 0 0 0 0 0 0 0 0 0 0 0 0 0 0 0 0 0 0 0
2 1 0 0 0 0 0 0 0 0 0 0 0 0 0 0 0 0 0 0 0 0 0 0 0 0 0 0 0 0 0 0 0 0 0 0 0 0 0 0 0 0 0
1 0 0 0 0 0 0 0 0 0 0 0 0 0 0 0 0 0 0 0 0 0 0 0 0 0 0 0 0 0 0 0 0 0 0 0 0 0 0 0 0 0 0
0 0 0 0 0 0 0 0 0 0 0 0 0 0 0 0 0 0 0 0 0 0 0 0 0 0 0 0 0 0 0 0 0 0 0 0 0 0 0 0 0 0 0
0 0 0 0 0 0 0 0 0 0 0 0 0 0 0 0 0 0 0 0 0 0 0 0 0 0 0 0 0 0 0 0 0 0 0 0 0 0 0 0 0 0 0
0 0 0 0 0 0 0 0 0 0 0 0 0 0 0 0 0 0 0 0 0 0 0 0 0 0 0 0 0 0 0 0 0 0 0 0 0 0 0 0 0 0 0
0 0 0 0 0 0 0 0 0 0 0 0 0 0 0 0 0 0 0 0 0 0 0 0 0 0 0 0 0 0 0 0 0 0 0 0 0 0 0 0 0 0 0
0 0 0 0 0 0 0 0 0 0 0 0 0 0 0 0 0 0 0 0 0 0 0 0 0 0 0 0 0 0 0 0 0 0 0 0 0 0 0 0 0 0 0
0 0 0 0 0 0 0 0 0 0 0 0 0 0 0 0 0 0 0 0 0 0 0 0 0 0 0 0 0 0 0 0 0 0 0 0 0 0 0 0 0 0 0
0 0 0 0 0 0 0 0 0 0 0 0 0 0 0 0 0 0 0 0 0 0 0 0 0 0 0 0 0 0 0 0 0 0 0 0 0 0 0 0 0 0 0
0 0 0 0 0 0 0 0 0 0 0 0 0 0 0 0 0 0 0 0 0 0 0 0 0 0 0 0 0 0 0 0 0 0 0 0 0 0 0 0 0 0 0
0 0 0 0 0 0 0 0 0 0 0 0 0 0 0 0 0 0 0 0 0 0 0 0 0 0 0 0 0 0 0 0 0 0 0 0 0 0 0 0 0 0 0
Wind_Speed
2 3 6 7 9 10 10 11 11 11 11 11 11 11 11 11 11 11 11 10 10 11 11 12 12 12 12 12 12 12 12 12 12 11 11 11 12 12 13 12 10 7 11
5 4 7 7 9 10 10 11 10 10 10 11 11 11 11 11 11 11 10 10 10 10 10 11 11 11 11 11 11 11 11 11 11 11 10 9 10 11 12 11 10 7 11
6 5 6 7 9 10 10 10 10 10 10 11 11 10 11 10 10 10 10 10 10 10 10 10 11 10 10 9 10 10 10 10 10 10 9 4 5 9 10 10 10 10 10
7 5 6 8 9 10 10 10 10 10 9 10 10 10 10 10 10 10 10 9 9 10 10 10 10 9 9 9 9 9 9 9 9 8 5 4 4 8 9 10 10 10 10
6 5 6 8 9 10 10 10 10 9 9 9 10 10 10 10 9 9 9 9 9 9 8 9 8 8 8 8 9 9 9 9 9 7 4 4 3 8 9 9 10 10 10
6 5 6 9 10 10 10 9 10 10 10 10 9 9 9 9 9 9 9 8 8 8 8 8 8 8 8 8 8 9 9 9 7 4 4 3 3 7 8 8 8 9 9
6 5 6 9 9 9 10 10 10 10 10 10 9 9 9 9 9 8 8 8 8 8 8 8 8 8 8 8 8 8 9 8 5 4 3 3 4 7 8 8 8 8 7
7 5 6 8 9 9 9 10 10 10 10 9 9 9 9 8 8 8 8 7 7 7 7 7 7 7 8 8 8 8 8 7 5 4 3 3 5 7 7 7 7 6 7
7 6 5 5 6 8 9 9 9 9 9 9 9 9 9 8 8 8 7 7 7 7 7 7 7 7 8 8 8 9 9 8 5 3 4 2 5 6 6 6 6 6 6
6 5 5 4 4 4 5 8 8 8 8 8 9 9 8 8 7 7 6 6 7 7 7 7 7 7 7 8 8 8 8 7 4 3 2 3 5 5 6 6 5 6 6
5 4 4 4 4 4 4 6 6 7 7 7 6 7 6 4 3 4 5 6 6 6 6 6 7 7 7 7 8 8 7 3 3 2 2 3 4 5 5 5 5 5 5
7 5 5 5 5 4 4 4 3 3 4 3 3 3 3 2 2 3 5 5 5 5 5 6 6 6 6 3 5 6 3 4 3 2 2 4 4 4 5 5 5 5 5
7 6 5 5 5 4 3 3 2 2 2 2 3 3 3 2 2 2 2 2 2 3 3 4 4 3 3 3 3 3 3 3 2 2 3 5 5 5 5 5 5 5 5
7 6 6 6 5 5 4 3 3 2 2 2 1 2 2 2 2 2 1 1 1 1 2 2 2 3 3 3 3 3 4 3 2 2 4 7 7 6 6 6 5 6 5
7 6 6 6 6 5 4 3 3 2 2 2 1 2 3 2 2 2 1 1 2 2 2 2 2 3 3 3 3 3 3 3 3 3 3 7 8 7 7 7 6 7 7
8 7 7 7 7 6 4 3 3 3 2 2 2 2 2 2 2 2 2 2 2 2 1 2 3 3 2 2 3 3 3 3 3 3 3 5 9 10 10 8 8 8 7
8 8 8 7 6 6 5 4 3 3 3 2 2 2 2 2 2 2 2 2 1 1 2 2 3 3 2 2 3 3 3 3 4 4 4 4 5 10 12 11 11 10 9
8 9 8 7 7 6 5 4 3 3 3 2 2 2 2 2 2 2 2 2 1 1 2 2 2 2 2 2 2 2 3 3 4 5 4 5 4 5 8 12 11 11 10
9 9 8 8 8 7 6 4 4 3 2 2 2 2 2 2 3 3 2 2 2 2 2 2 2 2 2 2 2 2 3 2 3 4 5 5 5 5 4 8 11 12 12
8 8 8 7 7 7 5 4 3 3 2 2 2 2 2 2 3 3 2 2 2 2 2 2 2 2 2 2 2 3 3 3 3 4 4 4 4 5 5 5 5 7 11
7 8 9 8 7 6 5 4 4 3 2 2 2 2 2 2 3 3 2 2 2 2 2 2 2 3 3 2 2 2 3 3 4 3 3 3 4 4 4 5 4 4 5
8 8 8 9 8 7 5 4 3 3 2 2 2 2 2 2 2 3 3 3 2 2 3 2 3 2 2 2 2 1 1 2 2 2 2 2 3 3 4 5 4 5 4
8 9 9 9 8 7 7 5 4 3 2 1 2 1 1 2 2 3 3 3 3 3 3 2 2 3 2 1 2 2 2 1 2 2 2 2 2 2 2 3 4 5 5
9 8 9 9 8 7 7 7 8 6 5 4 3 2 2 2 2 2 3 3 3 2 3 2 2 2 3 2 0 1 1 2 1 1 2 2 2 2 2 3 3 3 4
7 8 8 8 8 8 7 8 7 5 4 3 3 3 2 2 2 2 3 3 3 2 3 2 2 2 2 2 2 1 1 1 1 1 1 3 3 2 2 2 2 2 3
5 6 7 8 7 8 8 8 7 7 6 6 5 4 3 2 1 2 3 3 3 2 3 3 2 2 2 2 2 2 2 1 1 1 1 2 2 3 2 1 1 2 2
Wind_Direction
158 170 139 123 116 112 110 107 104 102 100 98 96 93 90 88 87 86 84 82 81 80 77 75 75 72 72 71 70 70 70 67 62 61 64 66 67 68 67 64 59 54 62
154 152 131 122 117 114 114 112 108 105 104 102 100 95 93 90 88 86 85 83 81 79 78 77 76 74 73 72 70 69 70 68 63 59 61 62 65 67 66 63 60 58 60
137 137 130 117 114 112 113 114 112 109 106 104 103 99 98 95 91 87 85 83 81 78 76 77 77 73 70 70 69 68 69 68 62 61 59 50 58 66 64 64 61 59 58
133 131 130 117 115 113 112 113 112 112 110 107 104 102 101 98 94 90 84 81 80 79 77 76 76 72 68 70 67 67 71 68 63 62 52 46 49 63 63 63 60 58 57
125 125 127 119 118 117 115 116 113 113 112 109 107 102 99 96 94 91 86 82 80 79 80 79 76 71 69 66 64 65 66 67 66 61 48 44 44 61 61 61 59 56 53
123 120 124 120 118 118 116 114 111 110 109 107 104 102 99 98 95 93 89 84 81 80 79 77 72 70 69 64 59 60 63 69 63 57 49 40 41 62 61 62 60 55 51
124 121 125 118 118 118 115 112 110 108 105 103 101 99 96 96 96 93 91 87 83 81 78 76 70 71 69 60 57 57 61 63 62 58 48 38 51 61 61 59 56 53 51
129 123 122 114 112 112 112 109 109 107 104 102 100 97 95 94 94 92 89 86 85 81 76 73 71 71 73 64 58 55 59 59 61 54 45 47 59 58 59 56 51 51 49
127 123 118 117 113 110 107 104 104 102 101 100 99 96 91 89 88 85 84 84 83 82 77 73 67 71 72 66 59 55 56 55 54 44 41 44 56 55 53 50 48 51 52
119 122 122 118 115 115 110 104 101 97 96 96 95 93 89 87 85 80 78 81 83 81 79 74 67 65 64 61 56 55 55 52 50 39 32 43 50 51 48 43 39 41 45
131 130 128 124 121 118 116 108 101 93 91 94 94 92 88 78 76 73 76 78 82 80 78 76 70 58 55 52 52 53 54 46 45 35 23 38 50 50 48 42 35 31 34
157 153 144 133 128 125 119 104 100 95 87 81 87 87 79 78 73 75 71 74 73 72 72 73 64 55 52 43 42 45 46 43 45 28 22 42 55 52 49 42 35 26 29
165 159 154 147 139 130 120 119 105 98 90 82 86 90 91 78 65 59 60 54 54 61 61 58 53 49 54 53 48 47 47 45 39 26 22 37 47 45 39 35 29 23 20
164 165 157 151 143 136 131 127 123 116 105 97 95 106 108 100 82 74 70 66 57 64 78 68 67 62 63 63 62 57 48 46 44 36 27 30 30 32 26 21 20 17 12
167 168 161 153 149 143 136 138 130 130 126 125 111 107 118 120 117 103 84 76 69 65 84 88 82 76 70 63 59 61 54 47 51 45 26 30 27 26 21 18 19 18 12
175 172 164 160 156 148 145 144 142 140 133 121 112 115 120 123 122 115 103 81 73 75 73 98 98 89 75 64 55 51 56 57 55 49 37 30 33 32 26 21 20 16 12
180 172 168 164 156 151 148 148 142 143 135 128 124 117 117 120 125 123 117 102 87 93 96 89 89 90 77 63 50 41 52 57 63 57 49 40 33 35 34 29 26 21 16
177 172 170 164 157 155 152 147 140 138 135 131 128 120 116 118 122 117 113 111 104 95 106 97 86 90 71 58 49 41 51 59 67 64 57 48 41 32 29 29 25 19 17
179 171 169 163 161 158 151 142 136 132 133 134 128 120 121 118 118 117 113 118 114 95 88 95 81 94 84 61 57 58 55 65 71 68 62 50 45 39 31 26 26 18 15
174 168 168 165 161 153 142 131 125 122 126 124 129 133 136 128 126 121 117 118 111 100 83 82 90 81 89 83 72 59 48 56 69 66 60 48 39 37 33 29 23 16 15
171 170 170 166 163 156 154 154 154 159 153 139 140 140 141 135 131 125 122 117 113 110 108 107 105 91 66 63 73 54 36 42 60 55 55 46 34 31 32 28 23 18 8
178 179 174 172 169 168 168 162 152 144 142 143 137 131 135 131 131 132 127 126 121 115 104 99 104 107 81 60 87 88 24 359 12 30 49 49 31 22 24 22 23 20 12
183 184 180 176 172 169 157 137 120 104 95 117 147 153 146 135 127 127 128 127 124 127 131 130 127 129 133 89 72 116 129 221 316 342 9 26 20 17 8 12 23 19 16
192 185 178 174 171 168 160 159 159 164 172 184 172 160 139 131 129 128 127 127 129 132 135 142 125 135 141 143 107 59 92 133 148 309 326 349 0 2 3 11 14 17 15
187 180 176 170 170 167 168 169 169 169 165 147 139 144 146 136 133 135 134 135 138 137 137 136 124 125 131 142 143 115 75 59 79 143 284 317 334 330 347 354 8 6 7
176 172 169 169 172 170 171 171 176 172 162 154 161 164 162 155 152 150 143 145 146 144 149 153 142 133 139 138 143 126 131 142 170 157 216 283 302 302 318 328 359 352 352